Regional Weather Roundup
Issued by NWS

Home | Current Version | Previous Version | Graphics & Text | Print | Product List | Glossary On
Versions: 1 2 3 4 5 6 7 8 9 10 11 12 13 14 15 16 17 18 19 20 21 22 23 24 25 26 27 28 29 30 31 32 33 34 35 36 37 38 39 40 41 42 43 44 45 46 47 48 49 50
000
ASUS43 KMPX 261501
RWRMN
WEATHER ROUNDUP FOR MINNESOTA
NATIONAL WEATHER SERVICE TWIN CITIES/CHANHASSEN MN
1000 AM CDT SUN APR 26 2015


NOTE: "FAIR" INDICATES FEW OR NO CLOUDS BELOW 12,000 FEET WITH NO
SIGNIFICANT WEATHER AND/OR OBSTRUCTIONS TO VISIBILITY. N/A MEANS
CURRENT SKY AND/OR WEATHER CONDITIONS ARE NOT AVAILABLE.

MNZ060>063-068>070-261600-
   Twin Cities Metro

CITY           SKY/WX    TMP DP  RH WIND       PRES   REMARKS
TWIN CITIES    SUNNY     48  24  39 CALM      30.12R
ST PAUL        SUNNY     49  24  37 SE8       30.13R
CRYSTAL        SUNNY     47  25  42 CALM      30.12R
BLAINE         SUNNY     46  27  46 NE7       30.11S
LAKEVILLE      SUNNY     46  27  46 E5        30.11R
EDEN PRAIRIE   SUNNY     49  24  37 S7        30.10R
SOUTH ST PAUL  SUNNY     49  22  35 SE6       30.12R
LAKE ELMO      FAIR      48  28  46 E7        30.13R
$$
MNZ001>005-007-008-013>017-022>024-027-028-261600-
   Northwest Minnesota

CITY           SKY/WX    TMP DP  RH WIND       PRES   REMARKS
BEMIDJI        SUNNY     49  18  28 SE6       30.15R
HALLOCK        SUNNY     54  16  22 S16       30.12S
ROSEAU         SUNNY     54  23  30 SW5       30.14S
WARROAD        SUNNY     46  30  53 NE3       30.16S
THIEF RVR FALL SUNNY     52  18  25 S9        30.15R
CROOKSTON      SUNNY     54  12  19 S9        30.14R
FOSSTON        SUNNY     54  21  28 CALM      30.13S
DETROIT LAKES  SUNNY     48  14  25 SE10      30.14R
MOORHEAD       SUNNY     54   7  15 S9        30.12S
PARK RAPIDS    SUNNY     49  13  23 SE8       30.13S
MAHNOMEN       FAIR      51  14  23 S5        30.12S
$$
MNZ006-009>011-018-025>026-261600-
   North Central Minnesota

CITY           SKY/WX    TMP DP  RH WIND       PRES   REMARKS
BAUDETTE       SUNNY     50  18  28 S7        30.16S
FLAG ISLAND    SUNNY     43  27  52 S5        30.16S
INTL FALLS     SUNNY     47  18  31 VRB5      30.18S
WASKISH        SUNNY     52  21  30 CALM      30.16S
BIG FORK       SUNNY     50  18  27 CALM      30.17S
LONGVILLE      SUNNY     46  14  27 S6        30.15F
GRAND RAPIDS   SUNNY     45  16  31 SE6       30.16F
CRANE LAKE     SUNNY     45  19  36 CALM      30.20S
ORR            SUNNY     46  16  29 CALM      30.16R
COOK           SUNNY     46  19  34 NE5       30.17S
WALKER         FAIR      45  16  31 E6        30.15S
$$
MNZ012-019>021-037-261600-
   Northeast Minnesota

CITY           SKY/WX    TMP DP  RH WIND       PRES   REMARKS
DULUTH         SUNNY     46  16  30 E10       30.15R
ELY            SUNNY     45  19  36 N3        30.16S
HIBBING        SUNNY     48  16  27 CALM      30.16S
EVELETH        SUNNY     45  19  36 NE8       30.17S
DULUTH HARBOR  SUNNY     39  28  65 CALM      30.19S
TWO HARBORS    SUNNY     48  25  40 E9        30.15S
SILVER BAY     SUNNY     46  21  36 E8        30.16R
GRAND MARAIS     N/A     44  26  49 E3        30.18R
G MARAIS ARPRT SUNNY     46  16  29 N7        30.15R
$$
MNZ029>031-032-039>041-046>048-054>057-064-261600-
   West Central Minnesota

CITY           SKY/WX    TMP DP  RH WIND       PRES   REMARKS
FERGUS FALLS   SUNNY     52   1  12 SE9       30.13R
WHEATON        SUNNY     45  27  49 SE7       30.13S
MORRIS         SUNNY     50  28  43 E10       30.10S
ALEXANDRIA     SUNNY     47  22  37 E9        30.13S
ELBOW LAKE     FAIR      48  24  38 E7        30.11S
WADENA         SUNNY     46  21  36 E5        30.13S
GLENWOOD       SUNNY     46  27  46 NE7       30.12S
APPLETON       SUNNY     48  28  46 E5        30.11S
BENSON         SUNNY     48  25  40 SE6       30.11S
ORTONVILLE     SUNNY     46  27  46 SE5       30.11R
MADISON        SUNNY     46  27  46 SE3       30.11R
WILLMAR        FAIR      46  30  53 E6        30.12S
$$
MNZ033>034-036-042>043-049>051-058-059-261600-
   Central Minnesota

CITY           SKY/WX    TMP DP  RH WIND       PRES   REMARKS
ST CLOUD       SUNNY     46  25  43 NE7       30.13R
SAUK CENTRE    FAIR      46  22  39 E8        30.13R
PAYNESVILLE    SUNNY     42  26  52 N6        30.13S
AITKIN         SUNNY     46  16  29 E3        30.14S
PINE RIVER     SUNNY     45  19  36 SE6       30.18S
BRAINERD       SUNNY     46  17  31 VRB6      30.15S
STAPLES        SUNNY     46  18  31 E3        30.13F
LONG PRAIRIE   FAIR      45  25  45 NE5       30.13S
LITTLE FALLS   SUNNY     46  19  34 NE6       30.14R
LITCHFIELD     SUNNY     45  28  53 NE5       30.12R
BUFFALO        SUNNY     44  26  47 N3        30.14R
MAPLE LAKE     SUNNY     46  29  52 NE5       30.14R
$$
MNZ037-044-045-052-053-261600-
   East Central Minnesota

CITY           SKY/WX    TMP DP  RH WIND       PRES   REMARKS
PRINCETON      SUNNY     46  27  46 N6        30.13S
MORA           SUNNY     45  23  42 E7        30.15S
CAMBRIDGE      SUNNY     46  28  49 NE5       30.12R
RUSH CITY      SUNNY     45  27  48 NE3       30.14S
MOOSE LAKE     SUNNY     46  21  36 CALM      30.14S
HINCKLEY       FAIR      46  23  39 E5        30.14S
CLOQUET        SUNNY     46  14  27 E9        30.15S
MCGREGOR       SUNNY     45  19  36 NE5       30.16S
$$
MNZ071>073-080-081-089-090-097-098-261600-
   Southwest Minnesota

CITY           SKY/WX    TMP DP  RH WIND       PRES   REMARKS
MONTEVIDEO     SUNNY     50  28  43 S3        30.12S
GRANITE FALLS  SUNNY     48  27  44 CALM      30.13R
CANBY          SUNNY     46  30  54 CALM      30.12S
MARSHALL       SUNNY     46  27  46 E3        30.10S
REDWOOD FALLS  SUNNY     48  26  42 CALM      30.10R
OLIVIA         SUNNY     46  28  49 E5        30.09S
PIPESTONE      SUNNY     52  39  62 N2        30.07S
WINDOM         SUNNY     48  30  49 CALM      30.08R
WORTHINGTON    SUNNY     52  37  58 NE8       30.08R
JACKSON        SUNNY     52  32  46 N6        30.08R
TRACY          SUNNY     47  30  51 NE3       30.10R
SLAYTON        SUNNY     49  34  57 CALM      30.09S
$$
MNZ065>067-074>077-082>085-091>093-261600-
   South Central Minnesota

CITY           SKY/WX    TMP DP  RH WIND       PRES   REMARKS
MANKATO        SUNNY     48  25  40 CALM      30.10R
NEW ULM        SUNNY     46  27  46 NE3       30.09S
ST JAMES       SUNNY     48  28  46 N5        30.09S
FAIRMONT       SUNNY     48  34  57 N3        30.08R
GLENCOE        SUNNY     47  32  55 NE7       30.11R
FARIBAULT      SUNNY     50  25  37 E6        30.10R
OWATONNA       SUNNY     52  25  35 E7        30.09R
WASECA         SUNNY     48  30  49 E6        30.10R
ALBERT LEA     SUNNY     48  25  40 SE8       30.08R
$$
MNZ078>079-086>088-094>096-261600-
   Southeast Minnesota

CITY           SKY/WX    TMP DP  RH WIND       PRES   REMARKS
ROCHESTER      SUNNY     48  26  42 SE8       30.11R
RED WING       SUNNY     50  25  37 S7        30.11S
STANTON        SUNNY     51  24  35 S3        30.10R
DODGE CENTER   SUNNY     48  30  49 SE9       30.09S
WINONA         SUNNY     48  30  49 CALM      30.12R
AUSTIN         SUNNY     48  27  43 E8        30.09R
PRESTON        SUNNY     45  25  45 E7        30.10R
$$
ABBREVIATIONS USED IN REMARKS
   TC - TEMPERATURES IN CELSIUS
  WCI - WIND CHILL INDEX
   HX - HEAT INDEX
  VSB - VISIBILITY
$$


USA.gov is the U.S. government's official web portal to all federal, state and local government web resources and services.